Weather History for HETB - September, 2013

Change the Weather History Date:

Wednesday, September 18, 2013

  Actual Average (LLOV) Record (LLOV)
Temperature  
Mean Temperature 78 °F -  
Max Temperature 91 °F 88 °F 98 °F (2002)
Min Temperature 64 °F 67 °F 62 °F (1997)
Cooling Degree Days 12    
Growing Degree Days 28 (Base 50)    
Moisture  
Dew Point 46 °F    
Average Humidity 36    
Maximum Humidity 60    
Minimum Humidity 12    
Precipitation  
Precipitation 0.00 in - - ()
Sea Level Pressure  
Sea Level Pressure 29.94 in    
Wind  
Wind Speed 4 mph ()    
Max Wind Speed 23 mph    
Max Gust Speed 36 mph    
Averages and records for this station are not official NWS values.
T = Trace of Precipitation, MM = Missing Value Source: Averaged Metar Reports

Daily Weather History Graph

Daily Weather History Graph

Search for Another Location

Airport or City:

Trip Planner

Search our weather history database for the weather conditions in past years. The results will help you decide how hot, cold, wet, or windy it might be!

Date:

Astronomy

Sep. 18, 2013 Rise Set
Actual Time 5:27 AM EET 5:42 PM EET
Civil Twilight 5:03 AM EET 6:06 PM EET
Nautical Twilight 4:35 AM EET 6:34 PM EET
Astronomical Twilight 4:07 AM EET 7:02 PM EET
Moon 4:52 PM EET (9/18) 4:09 AM EET (9/18)
Length of Visible Light 13h 03m
Length of Day
12h 15m
Waxing Gibbous, 99% of the Moon is Illuminated
Sep 18
Waxing Gibbous
Sep 19
Full
Sep 27
Last Quarter
Oct 5
New
Oct 12
First Quarter

Hourly Weather History & Observations

Time (EET) Temp. Dew Point Humidity Pressure Visibility Wind Dir Wind Speed Gust Speed Precip Events Conditions
12:00 AM 71.6 °F 48.2 °F 43% 29.95 in - Calm Calm - N/A   Clear
1:00 AM 69.8 °F 48.2 °F 46% 29.95 in - Calm Calm - N/A   Clear
2:00 AM 68.0 °F 48.2 °F 49% 29.95 in - Calm Calm - N/A   Clear
3:00 AM 68.0 °F 46.4 °F 46% 29.92 in - Calm Calm - N/A   Clear
4:00 AM 64.4 °F 44.6 °F 49% 29.92 in - Calm Calm - N/A   Clear
5:00 AM 68.0 °F 46.4 °F 46% 29.92 in - Calm Calm - N/A   Clear
6:00 AM 68.0 °F 46.4 °F 46% 29.95 in - Calm Calm - N/A   Clear
7:00 AM 71.6 °F 48.2 °F 43% 29.95 in - Calm Calm - N/A   Clear
8:00 AM 80.6 °F 46.4 °F 30% 29.95 in - Calm Calm - N/A   Clear
9:00 AM 84.2 °F 46.4 °F 27% 29.95 in - WSW 2.3 mph - N/A   Clear
11:00 AM 87.8 °F 42.8 °F 21% 29.95 in - West 15.0 mph - N/A   Clear
12:00 PM 89.6 °F 41.0 °F 18% 29.92 in - WSW 17.3 mph 31.1 mph N/A   Clear
1:00 PM 91.4 °F 39.2 °F 16% 29.92 in - West 20.7 mph - N/A   Clear
2:00 PM 91.4 °F 35.6 °F 14% 29.89 in - West 21.9 mph 35.7 mph N/A   Clear
3:00 PM 91.4 °F 32.0 °F 12% 29.89 in - West 23.0 mph - N/A   Clear
5:00 PM 86.0 °F 42.8 °F 22% 29.89 in - West 17.3 mph - N/A   Clear
6:00 PM 82.4 °F 46.4 °F 28% 29.92 in - WNW 15.0 mph - N/A   Clear
7:00 PM 80.6 °F 48.2 °F 32% 29.95 in - NW 9.2 mph - N/A   Clear
8:00 PM 78.8 °F 50.0 °F 36% 29.95 in - WNW 10.4 mph - N/A   Clear
9:00 PM 75.2 °F 57.2 °F 53% 29.98 in - WNW 5.8 mph - N/A   Clear
10:00 PM 73.4 °F 57.2 °F 57% 29.98 in - Calm Calm - N/A   Clear
11:00 PM 71.6 °F 57.2 °F 60% 29.98 in - Calm Calm - N/A   Clear